Location: Newark
(7.1028°S, 35.3258°W)
Time: 17:14:47
(UTC+00:00)

Hubble Space Telescope - Pass Details

Date: 22 January 2020
Orbit: 536 x 540 km, 28.5° (Epoch: 21 February)

Event Time Altitude Azimuth Distance (km) Brightness Sun altitude
Rises 22:01:32 0° 279° (W) 2,674 5.3 -18.1°
Reaches altitude 10° 22:04:00 10° 268° (W) 1,785 4.5 -18.7°
Maximum altitude 22:07:37 29° 206° (SSW) 994 2.6 -19.5°
Drops below altitude 10° 22:11:16 10° 145° (SE) 1,788 3.3 -20.3°
Enters shadow 22:11:23 - 144° (SE) 1,831 3.4 -20.4°
